{"data":{"norad_id":62379,"intl_designator":"2024-247C","name":"HAWK-11B","alt_names":[],"object_type":"PAYLOAD","status":"ACTIVE","operator":null,"country":"US","launch_date":"2024-12-21","launch_site_code":"AFWTR","launch_vehicle":null,"mission":null,"orbit_class":"UNKNOWN","rcs_meters":null,"size_class":null,"mass_kg":null,"dimensions":null,"purposes":[],"wikipedia_slug":null,"has_3d_model":false,"image_url":null,"decayed_at":null,"tle_current":{"epoch":"2026-09-21T00:37:23.153952Z","epoch_age_seconds":266541,"freshness":"STALE","line1":"1 62379U 24247C   26264.02596243  .00004706  00000+0  16198-3 0  9991","line2":"2 62379  45.0140 124.0238 0001546  74.0173 286.0882 15.31429030 97694","mean_motion":15.3142903,"eccentricity":0.0001546,"inclination_deg":45.014,"raan_deg":124.0238,"arg_perigee_deg":74.0173,"mean_anomaly_deg":286.0882,"bstar":0.00016198,"rev_number":9769,"period_min":94.029822589951,"perigee_km":470.48890051544,"apogee_km":472.60682307471,"semimajor_km":6849.6848617951,"source":"CELESTRAK","updated_at":"2026-09-23T09:00:21.391127Z"}}}